Wetterdaten: Montag, 16.03.2015
Datum Zeit Temperatur Luftfeuchte Luftdruck Regen Wind Richtung Richtung Sonnenschein ET UV Solar Taupunkt Windchill Windben
16.03.2015 00:00 3,2 C 86 % 1024,8 hPa 0,0 l/m 1,6 km/h (1 Bft) NO 53 0 min 0,000 mm 0,0 UV-I 0 W/m 1,1 C 3,2 C 4,8 km/h (1 Bft)
16.03.2015 00:05 3,1 C 87 % 1024,7 hPa 0,0 l/m 1,6 km/h (1 Bft) O-NO 74 0 min 0,000 mm 0,0 UV-I 0 W/m 1,2 C 3,1 C 6,4 km/h (2 Bft)
16.03.2015 00:10 3,0 C 87 % 1024,7 hPa 0,0 l/m 2,6 km/h (1 Bft) O-NO 65 0 min 0,000 mm 0,0 UV-I 0 W/m 1,1 C 3,0 C 8,0 km/h (2 Bft)
16.03.2015 00:15 2,9 C 87 % 1024,7 hPa 0,0 l/m 3,2 km/h (1 Bft) O-NO 57 0 min 0,000 mm 0,0 UV-I 0 W/m 1,0 C 2,9 C 11,3 km/h (2 Bft)
16.03.2015 00:20 2,9 C 87 % 1024,8 hPa 0,0 l/m 4,1 km/h (1 Bft) NO 52 0 min 0,000 mm 0,0 UV-I 0 W/m 1,0 C 2,9 C 12,9 km/h (3 Bft)
16.03.2015 00:25 2,9 C 87 % 1024,8 hPa 0,0 l/m 4,1 km/h (1 Bft) O 101 0 min 0,000 mm 0,0 UV-I 0 W/m 1,0 C 2,9 C 11,3 km/h (2 Bft)
16.03.2015 00:30 2,8 C 88 % 1024,8 hPa 0,0 l/m 3,1 km/h (1 Bft) NO 56 0 min 0,000 mm 0,0 UV-I 0 W/m 1,0 C 2,8 C 11,3 km/h (2 Bft)
16.03.2015 00:35 2,8 C 88 % 1024,7 hPa 0,0 l/m 3,6 km/h (1 Bft) NO 55 0 min 0,000 mm 0,0 UV-I 0 W/m 1,0 C 2,8 C 11,3 km/h (2 Bft)
16.03.2015 00:40 2,7 C 88 % 1024,8 hPa 0,0 l/m 1,9 km/h (1 Bft) O-NO 59 0 min 0,000 mm 0,0 UV-I 0 W/m 0,9 C 2,7 C 4,8 km/h (1 Bft)
16.03.2015 00:45 2,6 C 88 % 1024,9 hPa 0,0 l/m 1,1 km/h (1 Bft) NO 47 0 min 0,000 mm 0,0 UV-I 0 W/m 0,8 C 2,6 C 6,4 km/h (2 Bft)
16.03.2015 00:50 2,5 C 88 % 1024,8 hPa 0,0 l/m 0,6 km/h (0 Bft) NO 49 0 min 0,000 mm 0,0 UV-I 0 W/m 0,7 C 2,5 C 3,2 km/h (1 Bft)
16.03.2015 00:55 2,4 C 89 % 1024,8 hPa 0,0 l/m 2,0 km/h (1 Bft) N-NO 32 0 min 0,000 mm 0,0 UV-I 0 W/m 0,8 C 2,4 C 8,0 km/h (2 Bft)
16.03.2015 01:00 2,4 C 89 % 1024,8 hPa 0,0 l/m 3,0 km/h (1 Bft) O-NO 67 0 min 0,000 mm 0,0 UV-I 0 W/m 0,8 C 2,4 C 11,3 km/h (2 Bft)
16.03.2015 01:05 2,4 C 89 % 1024,9 hPa 0,0 l/m 1,3 km/h (1 Bft) O-NO 63 0 min 0,000 mm 0,0 UV-I 0 W/m 0,8 C 2,4 C 4,8 km/h (1 Bft)
16.03.2015 01:10 2,3 C 89 % 1024,9 hPa 0,0 l/m 0,6 km/h (0 Bft) O-NO 57 0 min 0,000 mm 0,0 UV-I 0 W/m 0,7 C 2,3 C 3,2 km/h (1 Bft)
16.03.2015 01:15 2,3 C 89 % 1024,9 hPa 0,0 l/m 0,9 km/h (0 Bft) O-NO 68 0 min 0,000 mm 0,0 UV-I 0 W/m 0,7 C 2,3 C 4,8 km/h (1 Bft)
16.03.2015 01:20 2,2 C 89 % 1024,8 hPa 0,0 l/m 1,1 km/h (1 Bft) O-NO 59 0 min 0,000 mm 0,0 UV-I 0 W/m 0,6 C 2,2 C 4,8 km/h (1 Bft)
16.03.2015 01:25 2,2 C 90 % 1024,8 hPa 0,0 l/m 0,6 km/h (0 Bft) O-NO 68 0 min 0,000 mm 0,0 UV-I 0 W/m 0,7 C 2,2 C 4,8 km/h (1 Bft)
16.03.2015 01:30 2,1 C 90 % 1024,9 hPa 0,0 l/m 0,6 km/h (0 Bft) O-NO 64 0 min 0,000 mm 0,0 UV-I 0 W/m 0,6 C 2,1 C 4,8 km/h (1 Bft)
16.03.2015 01:35 2,1 C 90 % 1024,9 hPa 0,0 l/m 0,5 km/h (0 Bft) O-NO 58 0 min 0,000 mm 0,0 UV-I 0 W/m 0,6 C 2,1 C 3,2 km/h (1 Bft)
16.03.2015 01:40 2,0 C 90 % 1024,8 hPa 0,0 l/m 0,3 km/h (0 Bft) O-NO 69 0 min 0,000 mm 0,0 UV-I 0 W/m 0,5 C 2,0 C 1,6 km/h (1 Bft)
16.03.2015 01:45 2,0 C 90 % 1024,8 hPa 0,0 l/m 0,4 km/h (0 Bft) O-NO 73 0 min 0,000 mm 0,0 UV-I 0 W/m 0,5 C 2,0 C 3,2 km/h (1 Bft)
16.03.2015 01:50 1,9 C 90 % 1024,8 hPa 0,0 l/m 0,1 km/h (0 Bft) O 80 0 min 0,000 mm 0,0 UV-I 0 W/m 0,4 C 1,9 C 1,6 km/h (1 Bft)
16.03.2015 01:55 1,9 C 91 % 1024,8 hPa 0,0 l/m 0,8 km/h (0 Bft) O-NO 68 0 min 0,000 mm 0,0 UV-I 0 W/m 0,6 C 1,9 C 3,2 km/h (1 Bft)
16.03.2015 02:00 2,0 C 91 % 1024,8 hPa 0,0 l/m 0,6 km/h (0 Bft) O-NO 67 0 min 0,000 mm 0,0 UV-I 0 W/m 0,7 C 2,0 C 4,8 km/h (1 Bft)
16.03.2015 02:05 1,9 C 91 % 1024,7 hPa 0,0 l/m 2,4 km/h (1 Bft) NO 51 0 min 0,000 mm 0,0 UV-I 0 W/m 0,6 C 1,9 C 8,0 km/h (2 Bft)
16.03.2015 02:10 2,0 C 91 % 1024,6 hPa 0,0 l/m 1,5 km/h (1 Bft) O 80 0 min 0,000 mm 0,0 UV-I 0 W/m 0,7 C 2,0 C 8,0 km/h (2 Bft)
16.03.2015 02:15 1,9 C 91 % 1024,6 hPa 0,0 l/m 0,8 km/h (0 Bft) O-NO 61 0 min 0,000 mm 0,0 UV-I 0 W/m 0,6 C 1,9 C 3,2 km/h (1 Bft)
16.03.2015 02:20 1,9 C 91 % 1024,6 hPa 0,0 l/m 1,4 km/h (1 Bft) O-NO 57 0 min 0,000 mm 0,0 UV-I 0 W/m 0,6 C 1,9 C 6,4 km/h (2 Bft)
16.03.2015 02:25 1,8 C 91 % 1024,6 hPa 0,0 l/m 2,4 km/h (1 Bft) O-NO 76 0 min 0,000 mm 0,0 UV-I 0 W/m 0,5 C 1,8 C 8,0 km/h (2 Bft)
16.03.2015 02:30 1,9 C 91 % 1024,6 hPa 0,0 l/m 1,0 km/h (0 Bft) O-NO 62 0 min 0,000 mm 0,0 UV-I 0 W/m 0,6 C 1,9 C 4,8 km/h (1 Bft)
16.03.2015 02:35 1,9 C 91 % 1024,6 hPa 0,0 l/m 1,1 km/h (1 Bft) O-NO 57 0 min 0,000 mm 0,0 UV-I 0 W/m 0,6 C 1,9 C 8,0 km/h (2 Bft)
16.03.2015 02:40 1,9 C 92 % 1024,6 hPa 0,0 l/m 0,8 km/h (0 Bft) O 79 0 min 0,000 mm 0,0 UV-I 0 W/m 0,7 C 1,9 C 4,8 km/h (1 Bft)
16.03.2015 02:45 2,1 C 92 % 1024,5 hPa 0,0 l/m 2,0 km/h (1 Bft) O-NO 63 0 min 0,000 mm 0,0 UV-I 0 W/m 0,9 C 2,1 C 11,3 km/h (2 Bft)
16.03.2015 02:50 2,1 C 92 % 1024,5 hPa 0,0 l/m 3,6 km/h (1 Bft) NO 45 0 min 0,000 mm 0,0 UV-I 0 W/m 0,9 C 2,1 C 9,7 km/h (2 Bft)
16.03.2015 02:55 2,1 C 91 % 1024,5 hPa 0,0 l/m 2,0 km/h (1 Bft) NO 48 0 min 0,000 mm 0,0 UV-I 0 W/m 0,8 C 2,1 C 6,4 km/h (2 Bft)
16.03.2015 03:00 2,1 C 91 % 1024,4 hPa 0,0 l/m 1,9 km/h (1 Bft) NO 45 0 min 0,000 mm 0,0 UV-I 0 W/m 0,8 C 2,1 C 8,0 km/h (2 Bft)
16.03.2015 03:05 2,1 C 91 % 1024,4 hPa 0,0 l/m 2,2 km/h (1 Bft) N-NO 29 0 min 0,000 mm 0,0 UV-I 0 W/m 0,8 C 2,1 C 8,0 km/h (2 Bft)
16.03.2015 03:10 1,9 C 91 % 1024,4 hPa 0,0 l/m 1,5 km/h (1 Bft) O-NO 57 0 min 0,000 mm 0,0 UV-I 0 W/m 0,6 C 1,9 C 4,8 km/h (1 Bft)
16.03.2015 03:15 1,9 C 91 % 1024,4 hPa 0,0 l/m 0,8 km/h (0 Bft) O-NO 57 0 min 0,000 mm 0,0 UV-I 0 W/m 0,6 C 1,9 C 3,2 km/h (1 Bft)
16.03.2015 03:20 1,8 C 91 % 1024,4 hPa 0,0 l/m 1,0 km/h (0 Bft) O-NO 71 0 min 0,000 mm 0,0 UV-I 0 W/m 0,5 C 1,8 C 4,8 km/h (1 Bft)
16.03.2015 03:25 1,8 C 91 % 1024,3 hPa 0,0 l/m 1,0 km/h (0 Bft) NO 51 0 min 0,000 mm 0,0 UV-I 0 W/m 0,5 C 1,8 C 8,0 km/h (2 Bft)
16.03.2015 03:30 1,8 C 92 % 1024,4 hPa 0,0 l/m 2,0 km/h (1 Bft) NO 41 0 min 0,000 mm 0,0 UV-I 0 W/m 0,6 C 1,8 C 4,8 km/h (1 Bft)
16.03.2015 03:35 1,8 C 92 % 1024,3 hPa 0,0 l/m 3,5 km/h (1 Bft) NO 51 0 min 0,000 mm 0,0 UV-I 0 W/m 0,6 C 1,8 C 8,0 km/h (2 Bft)
16.03.2015 03:40 1,9 C 92 % 1024,3 hPa 0,0 l/m 3,3 km/h (1 Bft) NO 45 0 min 0,000 mm 0,0 UV-I 0 W/m 0,7 C 1,9 C 6,4 km/h (2 Bft)
16.03.2015 03:45 1,9 C 92 % 1024,4 hPa 0,0 l/m 2,7 km/h (1 Bft) NO 54 0 min 0,000 mm 0,0 UV-I 0 W/m 0,7 C 1,9 C 11,3 km/h (2 Bft)
16.03.2015 03:50 1,9 C 92 % 1024,3 hPa 0,0 l/m 2,4 km/h (1 Bft) O 87 0 min 0,000 mm 0,0 UV-I 0 W/m 0,7 C 1,9 C 8,0 km/h (2 Bft)
16.03.2015 03:55 1,8 C 92 % 1024,3 hPa 0,0 l/m 0,5 km/h (0 Bft) O-NO 70 0 min 0,000 mm 0,0 UV-I 0 W/m 0,6 C 1,8 C 3,2 km/h (1 Bft)
16.03.2015 04:00 1,8 C 92 % 1024,3 hPa 0,0 l/m 0,8 km/h (0 Bft) O-NO 61 0 min 0,000 mm 0,0 UV-I 0 W/m 0,6 C 1,8 C 4,8 km/h (1 Bft)
16.03.2015 04:05 1,8 C 92 % 1024,3 hPa 0,0 l/m 0,6 km/h (0 Bft) NO 56 0 min 0,000 mm 0,0 UV-I 0 W/m 0,6 C 1,8 C 3,2 km/h (1 Bft)
16.03.2015 04:10 1,8 C 92 % 1024,4 hPa 0,0 l/m 0,1 km/h (0 Bft) NO 49 0 min 0,000 mm 0,0 UV-I 0 W/m 0,6 C 1,8 C 1,6 km/h (1 Bft)
16.03.2015 04:15 1,7 C 92 % 1024,4 hPa 0,0 l/m 0,5 km/h (0 Bft) O-NO 65 0 min 0,000 mm 0,0 UV-I 0 W/m 0,5 C 1,7 C 4,8 km/h (1 Bft)
16.03.2015 04:20 1,7 C 92 % 1024,3 hPa 0,0 l/m 0,6 km/h (0 Bft) O-NO 67 0 min 0,000 mm 0,0 UV-I 0 W/m 0,5 C 1,7 C 3,2 km/h (1 Bft)
16.03.2015 04:25 1,7 C 92 % 1024,3 hPa 0,0 l/m 0,4 km/h (0 Bft) NO 55 0 min 0,000 mm 0,0 UV-I 0 W/m 0,5 C 1,7 C 4,8 km/h (1 Bft)
16.03.2015 04:30 1,7 C 92 % 1024,3 hPa 0,0 l/m 1,9 km/h (1 Bft) O-NO 75 0 min 0,000 mm 0,0 UV-I 0 W/m 0,5 C 1,7 C 6,4 km/h (2 Bft)
16.03.2015 04:35 1,7 C 92 % 1024,2 hPa 0,0 l/m 0,4 km/h (0 Bft) O-NO 59 0 min 0,000 mm 0,0 UV-I 0 W/m 0,5 C 1,7 C 3,2 km/h (1 Bft)
16.03.2015 04:40 1,7 C 92 % 1024,3 hPa 0,0 l/m 0,0 km/h (0 Bft) O-NO 59 0 min 0,000 mm 0,0 UV-I 0 W/m 0,5 C 1,7 C 1,6 km/h (1 Bft)
16.03.2015 04:45 1,6 C 92 % 1024,3 hPa 0,0 l/m 0,1 km/h (0 Bft) O-NO 59 0 min 0,000 mm 0,0 UV-I 0 W/m 0,4 C 1,6 C 1,6 km/h (1 Bft)
16.03.2015 04:50 1,6 C 92 % 1024,3 hPa 0,0 l/m 0,7 km/h (0 Bft) NO 40 0 min 0,000 mm 0,0 UV-I 0 W/m 0,4 C 1,6 C 6,4 km/h (2 Bft)
16.03.2015 04:55 1,7 C 92 % 1024,3 hPa 0,0 l/m 0,1 km/h (0 Bft) O-NO 58 0 min 0,000 mm 0,0 UV-I 0 W/m 0,5 C 1,7 C 3,2 km/h (1 Bft)
16.03.2015 05:00 1,7 C 92 % 1024,3 hPa 0,0 l/m 0,3 km/h (0 Bft) O-NO 78 0 min 0,000 mm 0,0 UV-I 0 W/m 0,5 C 1,7 C 3,2 km/h (1 Bft)
16.03.2015 05:05 1,6 C 92 % 1024,3 hPa 0,0 l/m 0,2 km/h (0 Bft) O-NO 65 0 min 0,000 mm 0,0 UV-I 0 W/m 0,4 C 1,6 C 3,2 km/h (1 Bft)
16.03.2015 05:10 1,6 C 92 % 1024,3 hPa 0,0 l/m 0,6 km/h (0 Bft) O-NO 57 0 min 0,000 mm 0,0 UV-I 0 W/m 0,4 C 1,6 C 3,2 km/h (1 Bft)
16.03.2015 05:15 1,6 C 92 % 1024,3 hPa 0,0 l/m 0,0 km/h (0 Bft) O-NO 74 0 min 0,000 mm 0,0 UV-I 0 W/m 0,4 C 1,6 C 1,6 km/h (1 Bft)
16.03.2015 05:20 1,6 C 93 % 1024,4 hPa 0,0 l/m 1,0 km/h (0 Bft) O-NO 74 0 min 0,000 mm 0,0 UV-I 0 W/m 0,6 C 1,6 C 4,8 km/h (1 Bft)
16.03.2015 05:25 1,6 C 92 % 1024,3 hPa 0,0 l/m 1,2 km/h (1 Bft) NO 56 0 min 0,000 mm 0,0 UV-I 0 W/m 0,4 C 1,6 C 4,8 km/h (1 Bft)
16.03.2015 05:30 1,6 C 92 % 1024,2 hPa 0,0 l/m 0,1 km/h (0 Bft) O-NO 76 0 min 0,000 mm 0,0 UV-I 0 W/m 0,4 C 1,6 C 3,2 km/h (1 Bft)
16.03.2015 05:35 1,5 C 92 % 1024,2 hPa 0,0 l/m 0,6 km/h (0 Bft) O-NO 59 0 min 0,000 mm 0,0 UV-I 0 W/m 0,3 C 1,5 C 8,0 km/h (2 Bft)
16.03.2015 05:40 1,6 C 92 % 1024,1 hPa 0,0 l/m 0,7 km/h (0 Bft) N-NW 341 0 min 0,000 mm 0,0 UV-I 0 W/m 0,4 C 1,6 C 4,8 km/h (1 Bft)
16.03.2015 05:45 1,6 C 92 % 1024,2 hPa 0,0 l/m 0,4 km/h (0 Bft) O-NO 71 0 min 0,000 mm 0,0 UV-I 0 W/m 0,4 C 1,6 C 3,2 km/h (1 Bft)
16.03.2015 05:50 1,6 C 92 % 1024,2 hPa 0,0 l/m 0,5 km/h (0 Bft) NO 42 0 min 0,000 mm 0,0 UV-I 0 W/m 0,4 C 1,6 C 4,8 km/h (1 Bft)
16.03.2015 05:55 1,6 C 92 % 1024,3 hPa 0,0 l/m 0,1 km/h (0 Bft) O-SO 117 0 min 0,000 mm 0,0 UV-I 0 W/m 0,4 C 1,6 C 1,6 km/h (1 Bft)
16.03.2015 06:00 1,6 C 92 % 1024,4 hPa 0,0 l/m 0,0 km/h (0 Bft) O-SO 113 0 min 0,000 mm 0,0 UV-I 0 W/m 0,4 C 1,6 C 1,6 km/h (1 Bft)
16.03.2015 06:05 1,7 C 92 % 1024,3 hPa 0,0 l/m 0,1 km/h (0 Bft) O-NO 69 0 min 0,000 mm 0,0 UV-I 0 W/m 0,5 C 1,7 C 1,6 km/h (1 Bft)
16.03.2015 06:10 1,7 C 92 % 1024,3 hPa 0,0 l/m 0,0 km/h (0 Bft) O-NO 66 0 min 0,000 mm 0,0 UV-I 0 W/m 0,5 C 1,7 C 1,6 km/h (1 Bft)
16.03.2015 06:15 1,6 C 92 % 1024,3 hPa 0,0 l/m 0,1 km/h (0 Bft) O-NO 67 0 min 0,000 mm 0,0 UV-I 0 W/m 0,4 C 1,6 C 1,6 km/h (1 Bft)
16.03.2015 06:20 1,5 C 92 % 1024,4 hPa 0,0 l/m 0,0 km/h (0 Bft) O-NO 67 0 min 0,000 mm 0,0 UV-I 0 W/m 0,3 C 1,5 C 0,0 km/h (0 Bft)
16.03.2015 06:25 1,4 C 92 % 1024,4 hPa 0,0 l/m 0,0 km/h (0 Bft) O-NO 67 0 min 0,000 mm 0,0 UV-I 0 W/m 0,2 C 1,4 C 0,0 km/h (0 Bft)
16.03.2015 06:30 1,5 C 92 % 1024,4 hPa 0,0 l/m 0,0 km/h (0 Bft) O-NO 67 0 min 0,000 mm 0,0 UV-I 0 W/m 0,3 C 1,5 C 0,0 km/h (0 Bft)
16.03.2015 06:35 1,5 C 92 % 1024,5 hPa 0,0 l/m 0,0 km/h (0 Bft) O-NO 67 0 min 0,000 mm 0,0 UV-I 0 W/m 0,3 C 1,5 C 1,6 km/h (1 Bft)
16.03.2015 06:40 1,4 C 92 % 1024,5 hPa 0,0 l/m 0,0 km/h (0 Bft) O-NO 67 0 min 0,000 mm 0,0 UV-I 0 W/m 0,2 C 1,4 C 0,0 km/h (0 Bft)
16.03.2015 06:45 1,4 C 92 % 1024,6 hPa 0,0 l/m 0,3 km/h (0 Bft) O 86 0 min 0,000 mm 0,0 UV-I 5 W/m 0,2 C 1,4 C 3,2 km/h (1 Bft)
16.03.2015 06:50 1,6 C 92 % 1024,4 hPa 0,0 l/m 0,3 km/h (0 Bft) N-NO 18 0 min 0,000 mm 0,0 UV-I 8 W/m 0,4 C 1,6 C 3,2 km/h (1 Bft)
16.03.2015 06:55 1,6 C 92 % 1024,4 hPa 0,0 l/m 0,4 km/h (0 Bft) O-NO 59 0 min 0,000 mm 0,0 UV-I 11 W/m 0,4 C 1,6 C 4,8 km/h (1 Bft)
16.03.2015 07:00 1,7 C 92 % 1024,5 hPa 0,0 l/m 1,0 km/h (0 Bft) NO 55 0 min 0,000 mm 0,0 UV-I 15 W/m 0,5 C 1,7 C 6,4 km/h (2 Bft)
16.03.2015 07:05 1,8 C 92 % 1024,4 hPa 0,0 l/m 1,1 km/h (1 Bft) O-NO 63 0 min 0,000 mm 0,0 UV-I 19 W/m 0,6 C 1,8 C 4,8 km/h (1 Bft)
16.03.2015 07:10 1,8 C 91 % 1024,5 hPa 0,0 l/m 0,4 km/h (0 Bft) O-NO 66 0 min 0,000 mm 0,0 UV-I 25 W/m 0,5 C 1,8 C 3,2 km/h (1 Bft)
16.03.2015 07:15 1,8 C 91 % 1024,6 hPa 0,0 l/m 1,0 km/h (0 Bft) NO 56 0 min 0,000 mm 0,0 UV-I 33 W/m 0,5 C 1,8 C 6,4 km/h (2 Bft)
16.03.2015 07:20 1,9 C 91 % 1024,6 hPa 0,0 l/m 0,6 km/h (0 Bft) O-NO 59 0 min 0,000 mm 0,0 UV-I 39 W/m 0,6 C 1,9 C 4,8 km/h (1 Bft)
16.03.2015 07:25 2,0 C 91 % 1024,5 hPa 0,0 l/m 0,1 km/h (0 Bft) O-NO 71 0 min 0,000 mm 0,0 UV-I 47 W/m 0,7 C 2,0 C 3,2 km/h (1 Bft)
16.03.2015 07:30 2,1 C 91 % 1024,6 hPa 0,0 l/m 0,7 km/h (0 Bft) O-NO 71 0 min 0,000 mm 0,0 UV-I 54 W/m 0,8 C 2,1 C 6,4 km/h (2 Bft)
16.03.2015 07:35 2,3 C 90 % 1024,6 hPa 0,0 l/m 3,0 km/h (1 Bft) O 90 0 min 0,000 mm 0,0 UV-I 68 W/m 0,8 C 2,3 C 9,7 km/h (2 Bft)
16.03.2015 07:40 2,4 C 91 % 1024,5 hPa 0,0 l/m 1,3 km/h (1 Bft) O-NO 60 0 min 0,000 mm 0,0 UV-I 77 W/m 1,1 C 2,4 C 6,4 km/h (2 Bft)
16.03.2015 07:45 2,6 C 90 % 1024,4 hPa 0,0 l/m 3,5 km/h (1 Bft) NO 53 0 min 0,000 mm 0,0 UV-I 87 W/m 1,1 C 2,6 C 11,3 km/h (2 Bft)
16.03.2015 07:50 2,9 C 90 % 1024,5 hPa 0,0 l/m 5,3 km/h (1 Bft) O-NO 70 5 min 0,000 mm 0,0 UV-I 99 W/m 1,4 C 2,9 C 16,1 km/h (3 Bft)
16.03.2015 07:55 3,1 C 89 % 1024,5 hPa 0,0 l/m 7,3 km/h (2 Bft) NO 52 0 min 0,000 mm 0,0 UV-I 94 W/m 1,5 C 2,2 C 14,5 km/h (3 Bft)
16.03.2015 08:00 3,2 C 89 % 1024,4 hPa 0,0 l/m 4,7 km/h (1 Bft) O-NO 71 0 min 0,025 mm 0,0 UV-I 102 W/m 1,6 C 3,2 C 11,3 km/h (2 Bft)
16.03.2015 08:05 3,4 C 88 % 1024,5 hPa 0,0 l/m 2,2 km/h (1 Bft) O 79 0 min 0,000 mm 0,0 UV-I 118 W/m 1,6 C 3,4 C 6,4 km/h (2 Bft)
16.03.2015 08:10 3,5 C 88 % 1024,4 hPa 0,0 l/m 5,0 km/h (1 Bft) NO 50 0 min 0,000 mm 0,0 UV-I 103 W/m 1,7 C 3,5 C 14,5 km/h (3 Bft)
16.03.2015 08:15 3,6 C 88 % 1024,6 hPa 0,0 l/m 4,7 km/h (1 Bft) O-NO 70 0 min 0,000 mm 0,0 UV-I 108 W/m 1,8 C 3,6 C 8,0 km/h (2 Bft)
16.03.2015 08:20 3,8 C 88 % 1024,5 hPa 0,0 l/m 6,2 km/h (2 Bft) NO 49 0 min 0,000 mm 0,0 UV-I 137 W/m 2,0 C 3,8 C 19,3 km/h (3 Bft)
16.03.2015 08:25 4,1 C 87 % 1024,5 hPa 0,0 l/m 8,7 km/h (2 Bft) O-NO 63 5 min 0,000 mm 0,4 UV-I 167 W/m 2,1 C 2,1 C 16,1 km/h (3 Bft)
16.03.2015 08:30 4,3 C 87 % 1024,6 hPa 0,0 l/m 3,9 km/h (1 Bft) O-NO 67 5 min 0,000 mm 0,5 UV-I 192 W/m 2,3 C 4,3 C 12,9 km/h (3 Bft)
16.03.2015 08:35 4,8 C 85 % 1024,4 hPa 0,0 l/m 5,2 km/h (1 Bft) O-NO 57 5 min 0,000 mm 0,5 UV-I 224 W/m 2,5 C 4,8 C 14,5 km/h (3 Bft)
16.03.2015 08:40 4,9 C 84 % 1024,5 hPa 0,0 l/m 8,4 km/h (2 Bft) O-NO 71 5 min 0,000 mm 0,5 UV-I 223 W/m 2,4 C 3,2 C 16,1 km/h (3 Bft)
16.03.2015 08:45 5,1 C 82 % 1024,5 hPa 0,0 l/m 7,7 km/h (2 Bft) NO 46 5 min 0,000 mm 0,6 UV-I 195 W/m 2,3 C 4,0 C 16,1 km/h (3 Bft)
16.03.2015 08:50 5,3 C 83 % 1024,4 hPa 0,0 l/m 6,1 km/h (2 Bft) O 80 5 min 0,000 mm 0,6 UV-I 205 W/m 2,7 C 5,3 C 16,1 km/h (3 Bft)
16.03.2015 08:55 5,2 C 82 % 1024,4 hPa 0,0 l/m 6,0 km/h (2 Bft) O-NO 62 0 min 0,000 mm 0,6 UV-I 176 W/m 2,4 C 5,2 C 12,9 km/h (3 Bft)
16.03.2015 09:00 5,3 C 82 % 1024,4 hPa 0,0 l/m 3,2 km/h (1 Bft) NO 49 0 min 0,077 mm 0,6 UV-I 166 W/m 2,5 C 5,3 C 8,0 km/h (2 Bft)
16.03.2015 09:05 5,2 C 82 % 1024,4 hPa 0,0 l/m 8,4 km/h (2 Bft) NO 53 0 min 0,000 mm 0,6 UV-I 179 W/m 2,4 C 3,5 C 16,1 km/h (3 Bft)
16.03.2015 09:10 5,3 C 82 % 1024,4 hPa 0,0 l/m 5,9 km/h (2 Bft) NO 42 0 min 0,000 mm 0,7 UV-I 181 W/m 2,5 C 5,3 C 14,5 km/h (3 Bft)
16.03.2015 09:15 5,4 C 81 % 1024,2 hPa 0,0 l/m 7,0 km/h (2 Bft) NO 46 5 min 0,000 mm 0,7 UV-I 219 W/m 2,4 C 4,9 C 16,1 km/h (3 Bft)
16.03.2015 09:20 5,4 C 81 % 1024,2 hPa 0,0 l/m 8,1 km/h (2 Bft) O-NO 67 5 min 0,000 mm 0,7 UV-I 248 W/m 2,4 C 3,9 C 17,7 km/h (3 Bft)
16.03.2015 09:25 5,7 C 81 % 1024,1 hPa 0,0 l/m 4,5 km/h (1 Bft) SO 141 5 min 0,000 mm 0,8 UV-I 241 W/m 2,7 C 5,7 C 11,3 km/h (2 Bft)
16.03.2015 09:30 5,8 C 79 % 1024,1 hPa 0,0 l/m 6,2 km/h (2 Bft) NO 45 5 min 0,000 mm 0,8 UV-I 245 W/m 2,4 C 5,8 C 17,7 km/h (3 Bft)
16.03.2015 09:35 5,8 C 79 % 1024,1 hPa 0,0 l/m 7,3 km/h (2 Bft) O-NO 57 5 min 0,000 mm 0,8 UV-I 237 W/m 2,4 C 5,0 C 14,5 km/h (3 Bft)
16.03.2015 09:40 6,0 C 80 % 1024,0 hPa 0,0 l/m 6,3 km/h (2 Bft) NO 51 5 min 0,000 mm 0,9 UV-I 256 W/m 2,8 C 6,0 C 17,7 km/h (3 Bft)
16.03.2015 09:45 6,3 C 78 % 1024,0 hPa 0,0 l/m 6,1 km/h (2 Bft) N-NO 26 0 min 0,000 mm 0,9 UV-I 241 W/m 2,8 C 6,3 C 12,9 km/h (3 Bft)
16.03.2015 09:50 6,2 C 77 % 1024,0 hPa 0,0 l/m 9,4 km/h (2 Bft) O-NO 67 0 min 0,000 mm 0,9 UV-I 225 W/m 2,5 C 3,8 C 17,7 km/h (3 Bft)
16.03.2015 09:55 6,1 C 78 % 1024,0 hPa 0,0 l/m 7,1 km/h (2 Bft) N-NW 342 0 min 0,000 mm 0,9 UV-I 246 W/m 2,6 C 5,5 C 19,3 km/h (3 Bft)
16.03.2015 10:00 6,3 C 77 % 1024,0 hPa 0,0 l/m 7,0 km/h (2 Bft) NO 56 5 min 0,101 mm 1,0 UV-I 315 W/m 2,6 C 5,8 C 19,3 km/h (3 Bft)
16.03.2015 10:05 6,9 C 78 % 1023,9 hPa 0,0 l/m 6,7 km/h (2 Bft) O-NO 71 5 min 0,000 mm 1,1 UV-I 396 W/m 3,3 C 6,7 C 17,7 km/h (3 Bft)
16.03.2015 10:10 7,2 C 74 % 1023,9 hPa 0,0 l/m 10,6 km/h (2 Bft) O-NO 63 5 min 0,000 mm 1,2 UV-I 371 W/m 2,9 C 4,1 C 22,5 km/h (4 Bft)
16.03.2015 10:15 6,7 C 74 % 1024,0 hPa 0,0 l/m 11,6 km/h (2 Bft) N-NO 22 5 min 0,000 mm 1,2 UV-I 336 W/m 2,4 C 2,9 C 19,3 km/h (3 Bft)
16.03.2015 10:20 7,0 C 76 % 1024,0 hPa 0,0 l/m 5,7 km/h (1 Bft) O-NO 61 5 min 0,000 mm 1,2 UV-I 340 W/m 3,1 C 7,0 C 16,1 km/h (3 Bft)
16.03.2015 10:25 7,7 C 75 % 1023,9 hPa 0,0 l/m 1,7 km/h (1 Bft) NO 36 5 min 0,000 mm 1,4 UV-I 366 W/m 3,6 C 7,7 C 9,7 km/h (2 Bft)
16.03.2015 10:30 8,2 C 73 % 1023,9 hPa 0,0 l/m 4,6 km/h (1 Bft) O-NO 67 5 min 0,000 mm 1,4 UV-I 522 W/m 3,7 C 8,2 C 11,3 km/h (2 Bft)
16.03.2015 10:35 8,6 C 71 % 1023,9 hPa 0,0 l/m 5,4 km/h (1 Bft) NO 41 5 min 0,000 mm 1,4 UV-I 511 W/m 3,6 C 8,6 C 11,3 km/h (2 Bft)
16.03.2015 10:40 8,3 C 70 % 1023,8 hPa 0,0 l/m 8,6 km/h (2 Bft) O-NO 59 5 min 0,000 mm 1,5 UV-I 510 W/m 3,2 C 6,6 C 17,7 km/h (3 Bft)
16.03.2015 10:45 8,9 C 70 % 1023,7 hPa 0,0 l/m 5,9 km/h (2 Bft) O-SO 120 5 min 0,000 mm 1,5 UV-I 510 W/m 3,7 C 8,9 C 14,5 km/h (3 Bft)
16.03.2015 10:50 9,1 C 70 % 1023,6 hPa 0,0 l/m 6,3 km/h (2 Bft) N-NW 327 5 min 0,000 mm 1,5 UV-I 510 W/m 3,9 C 9,1 C 16,1 km/h (3 Bft)
16.03.2015 10:55 9,4 C 69 % 1023,6 hPa 0,0 l/m 7,2 km/h (2 Bft) NO 52 5 min 0,000 mm 1,6 UV-I 526 W/m 4,0 C 8,8 C 14,5 km/h (3 Bft)
16.03.2015 11:00 9,6 C 66 % 1023,6 hPa 0,0 l/m 7,7 km/h (2 Bft) O-NO 63 5 min 0,203 mm 1,6 UV-I 525 W/m 3,6 C 8,6 C 16,1 km/h (3 Bft)
16.03.2015 11:05 9,9 C 68 % 1023,5 hPa 0,0 l/m 4,7 km/h (1 Bft) NO 51 5 min 0,000 mm 1,6 UV-I 532 W/m 4,3 C 9,9 C 16,1 km/h (3 Bft)
16.03.2015 11:10 10,1 C 64 % 1023,5 hPa 0,0 l/m 10,4 km/h (2 Bft) O-NO 59 5 min 0,000 mm 1,7 UV-I 545 W/m 3,6 C 7,5 C 22,5 km/h (4 Bft)
16.03.2015 11:15 9,9 C 63 % 1023,5 hPa 0,0 l/m 8,5 km/h (2 Bft) NO 40 5 min 0,000 mm 1,7 UV-I 549 W/m 3,2 C 8,4 C 17,7 km/h (3 Bft)
16.03.2015 11:20 9,6 C 65 % 1023,4 hPa 0,0 l/m 7,2 km/h (2 Bft) O-NO 66 5 min 0,000 mm 1,7 UV-I 554 W/m 3,4 C 9,0 C 16,1 km/h (3 Bft)
16.03.2015 11:25 10,4 C 63 % 1023,5 hPa 0,0 l/m 5,1 km/h (1 Bft) N 5 5 min 0,000 mm 1,7 UV-I 506 W/m 3,7 C 10,4 C 12,9 km/h (3 Bft)
16.03.2015 11:30 10,8 C 63 % 1023,5 hPa 0,0 l/m 4,8 km/h (1 Bft) O-NO 63 5 min 0,000 mm 1,7 UV-I 517 W/m 4,0 C 10,8 C 14,5 km/h (3 Bft)
16.03.2015 11:35 10,9 C 62 % 1023,5 hPa 0,0 l/m 5,3 km/h (1 Bft) SO 136 5 min 0,000 mm 1,7 UV-I 490 W/m 3,9 C 10,9 C 12,9 km/h (3 Bft)
16.03.2015 11:40 9,9 C 62 % 1023,5 hPa 0,0 l/m 9,0 km/h (2 Bft) O-NO 60 5 min 0,000 mm 1,7 UV-I 533 W/m 3,0 C 8,1 C 20,9 km/h (4 Bft)
16.03.2015 11:45 10,4 C 62 % 1023,5 hPa 0,0 l/m 7,5 km/h (2 Bft) O 80 5 min 0,000 mm 1,9 UV-I 612 W/m 3,4 C 9,6 C 17,7 km/h (3 Bft)
16.03.2015 11:50 9,9 C 62 % 1023,7 hPa 0,0 l/m 10,8 km/h (2 Bft) SO 125 5 min 0,000 mm 1,9 UV-I 629 W/m 3,0 C 7,0 C 24,1 km/h (4 Bft)
16.03.2015 11:55 10,3 C 64 % 1023,6 hPa 0,0 l/m 9,9 km/h (2 Bft) NO 45 5 min 0,000 mm 1,8 UV-I 566 W/m 3,8 C 8,0 C 17,7 km/h (3 Bft)
16.03.2015 12:00 10,1 C 62 % 1023,7 hPa 0,0 l/m 10,0 km/h (2 Bft) NO 41 5 min 0,000 mm 1,7 UV-I 445 W/m 3,2 C 7,7 C 17,7 km/h (3 Bft)
16.03.2015 12:05 9,7 C 64 % 1023,7 hPa 0,0 l/m 9,0 km/h (2 Bft) O-NO 68 5 min 0,280 mm 1,6 UV-I 400 W/m 3,2 C 7,9 C 16,1 km/h (3 Bft)
16.03.2015 12:10 9,9 C 63 % 1023,6 hPa 0,0 l/m 7,7 km/h (2 Bft) O-NO 57 0 min 0,000 mm 1,4 UV-I 306 W/m 3,2 C 9,0 C 19,3 km/h (3 Bft)
16.03.2015 12:15 9,8 C 66 % 1023,7 hPa 0,0 l/m 5,7 km/h (1 Bft) O-NO 62 0 min 0,000 mm 1,3 UV-I 266 W/m 3,8 C 9,8 C 14,5 km/h (3 Bft)
16.03.2015 12:20 10,0 C 64 % 1023,7 hPa 0,0 l/m 10,1 km/h (2 Bft) NO 43 5 min 0,000 mm 1,5 UV-I 381 W/m 3,5 C 7,5 C 17,7 km/h (3 Bft)
16.03.2015 12:25 10,2 C 63 % 1023,5 hPa 0,0 l/m 11,1 km/h (2 Bft) O-SO 107 5 min 0,000 mm 1,8 UV-I 531 W/m 3,5 C 7,2 C 20,9 km/h (4 Bft)
16.03.2015 12:30 10,3 C 64 % 1023,4 hPa 0,0 l/m 10,6 km/h (2 Bft) NO 56 5 min 0,000 mm 1,9 UV-I 554 W/m 3,8 C 7,6 C 24,1 km/h (4 Bft)
16.03.2015 12:35 10,3 C 62 % 1023,4 hPa 0,0 l/m 11,7 km/h (2 Bft) O-NO 61 5 min 0,000 mm 1,9 UV-I 559 W/m 3,3 C 7,0 C 19,3 km/h (3 Bft)
16.03.2015 12:40 9,9 C 65 % 1023,3 hPa 0,0 l/m 10,6 km/h (2 Bft) O 87 5 min 0,000 mm 1,8 UV-I 483 W/m 3,6 C 7,1 C 20,9 km/h (4 Bft)
16.03.2015 12:45 10,4 C 65 % 1023,3 hPa 0,0 l/m 7,8 km/h (2 Bft) SO 130 5 min 0,000 mm 2,0 UV-I 606 W/m 4,1 C 9,4 C 16,1 km/h (3 Bft)
16.03.2015 12:50 11,2 C 61 % 1023,1 hPa 0,0 l/m 10,0 km/h (2 Bft) NO 50 5 min 0,000 mm 2,0 UV-I 605 W/m 4,0 C 8,9 C 17,7 km/h (3 Bft)
16.03.2015 12:55 11,1 C 63 % 1023,2 hPa 0,0 l/m 10,8 km/h (2 Bft) O 92 5 min 0,000 mm 2,0 UV-I 616 W/m 4,3 C 8,4 C 20,9 km/h (4 Bft)
16.03.2015 13:00 10,9 C 63 % 1023,2 hPa 0,0 l/m 8,3 km/h (2 Bft) O-NO 68 5 min 0,000 mm 1,9 UV-I 609 W/m 4,1 C 9,6 C 16,1 km/h (3 Bft)
16.03.2015 13:05 11,7 C 59 % 1023,1 hPa 0,0 l/m 8,9 km/h (2 Bft) O 86 5 min 0,279 mm 1,9 UV-I 629 W/m 4,0 C 10,1 C 14,5 km/h (3 Bft)
16.03.2015 13:10 11,2 C 59 % 1023,2 hPa 0,0 l/m 11,5 km/h (2 Bft) O 89 5 min 0,000 mm 1,7 UV-I 515 W/m 3,5 C 8,1 C 22,5 km/h (4 Bft)
16.03.2015 13:15 11,2 C 60 % 1023,1 hPa 0,0 l/m 9,2 km/h (2 Bft) O 79 5 min 0,000 mm 1,9 UV-I 655 W/m 3,7 C 9,4 C 20,9 km/h (4 Bft)
16.03.2015 13:20 11,2 C 60 % 1023,1 hPa 0,0 l/m 8,1 km/h (2 Bft) O-NO 71 5 min 0,000 mm 1,8 UV-I 657 W/m 3,7 C 10,0 C 16,1 km/h (3 Bft)
16.03.2015 13:25 11,1 C 60 % 1023,0 hPa 0,0 l/m 11,4 km/h (2 Bft) O-NO 66 5 min 0,000 mm 1,9 UV-I 591 W/m 3,6 C 8,1 C 17,7 km/h (3 Bft)
16.03.2015 13:30 11,4 C 60 % 1023,0 hPa 0,0 l/m 10,2 km/h (2 Bft) NO 50 5 min 0,000 mm 2,0 UV-I 721 W/m 3,9 C 9,0 C 19,3 km/h (3 Bft)
16.03.2015 13:35 11,8 C 60 % 1022,9 hPa 0,0 l/m 9,0 km/h (2 Bft) NO 50 5 min 0,000 mm 1,9 UV-I 633 W/m 4,3 C 10,1 C 19,3 km/h (3 Bft)
16.03.2015 13:40 12,3 C 57 % 1022,9 hPa 0,0 l/m 10,3 km/h (2 Bft) O-NO 59 5 min 0,000 mm 1,8 UV-I 605 W/m 4,0 C 10,0 C 22,5 km/h (4 Bft)
16.03.2015 13:45 12,2 C 54 % 1022,8 hPa 0,0 l/m 14,7 km/h (3 Bft) O-SO 114 5 min 0,000 mm 1,8 UV-I 598 W/m 3,2 C 7,9 C 25,7 km/h (4 Bft)
16.03.2015 13:50 11,6 C 56 % 1022,9 hPa 0,0 l/m 10,4 km/h (2 Bft) O-NO 76 5 min 0,000 mm 1,8 UV-I 588 W/m 3,1 C 9,1 C 20,9 km/h (4 Bft)
16.03.2015 13:55 11,9 C 54 % 1022,8 hPa 0,0 l/m 12,6 km/h (3 Bft) O 80 5 min 0,000 mm 1,7 UV-I 573 W/m 2,9 C 8,4 C 25,7 km/h (4 Bft)
16.03.2015 14:00 12,3 C 56 % 1022,8 hPa 0,0 l/m 5,5 km/h (1 Bft) O-SO 118 5 min 0,000 mm 1,7 UV-I 577 W/m 3,8 C 12,3 C 11,3 km/h (2 Bft)
16.03.2015 14:05 12,8 C 55 % 1022,9 hPa 0,0 l/m 9,1 km/h (2 Bft) O-NO 73 5 min 0,330 mm 1,7 UV-I 569 W/m 4,0 C 11,2 C 20,9 km/h (4 Bft)
16.03.2015 14:10 13,1 C 53 % 1022,8 hPa 0,0 l/m 4,9 km/h (1 Bft) O 90 5 min 0,000 mm 1,6 UV-I 557 W/m 3,7 C 13,1 C 14,5 km/h (3 Bft)
16.03.2015 14:15 12,9 C 55 % 1022,9 hPa 0,0 l/m 8,7 km/h (2 Bft) NO 51 5 min 0,000 mm 1,6 UV-I 548 W/m 4,1 C 11,5 C 19,3 km/h (3 Bft)
16.03.2015 14:20 13,1 C 51 % 1022,8 hPa 0,0 l/m 9,3 km/h (2 Bft) O 84 5 min 0,000 mm 1,6 UV-I 543 W/m 3,2 C 11,4 C 20,9 km/h (4 Bft)
16.03.2015 14:25 12,4 C 55 % 1022,8 hPa 0,0 l/m 8,8 km/h (2 Bft) O 98 5 min 0,000 mm 1,5 UV-I 536 W/m 3,6 C 10,9 C 16,1 km/h (3 Bft)
16.03.2015 14:30 12,6 C 55 % 1022,8 hPa 0,0 l/m 9,1 km/h (2 Bft) O-NO 76 5 min 0,000 mm 1,5 UV-I 523 W/m 3,8 C 10,9 C 14,5 km/h (3 Bft)
16.03.2015 14:35 13,0 C 55 % 1022,7 hPa 0,0 l/m 7,0 km/h (2 Bft) O-SO 111 5 min 0,000 mm 1,4 UV-I 514 W/m 4,2 C 12,6 C 16,1 km/h (3 Bft)
16.03.2015 14:40 13,3 C 54 % 1022,7 hPa 0,0 l/m 9,2 km/h (2 Bft) N-NO 32 5 min 0,000 mm 1,4 UV-I 515 W/m 4,2 C 11,7 C 24,1 km/h (4 Bft)
16.03.2015 14:45 13,1 C 51 % 1022,7 hPa 0,0 l/m 7,8 km/h (2 Bft) O 94 5 min 0,000 mm 1,4 UV-I 503 W/m 3,2 C 12,2 C 17,7 km/h (3 Bft)
16.03.2015 14:50 12,6 C 52 % 1022,7 hPa 0,0 l/m 8,1 km/h (2 Bft) O-NO 75 5 min 0,000 mm 1,3 UV-I 491 W/m 3,0 C 11,5 C 16,1 km/h (3 Bft)
16.03.2015 14:55 13,1 C 52 % 1022,6 hPa 0,0 l/m 9,1 km/h (2 Bft) O-NO 65 5 min 0,000 mm 1,3 UV-I 481 W/m 3,5 C 11,5 C 20,9 km/h (4 Bft)
16.03.2015 15:00 13,1 C 52 % 1022,6 hPa 0,0 l/m 12,2 km/h (2 Bft) O-NO 59 5 min 0,000 mm 1,3 UV-I 481 W/m 3,5 C 10,0 C 17,7 km/h (3 Bft)
16.03.2015 15:05 13,0 C 52 % 1022,5 hPa 0,0 l/m 10,7 km/h (2 Bft) NO 55 5 min 0,305 mm 1,2 UV-I 464 W/m 3,4 C 10,6 C 22,5 km/h (4 Bft)
16.03.2015 15:10 13,2 C 53 % 1022,5 hPa 0,0 l/m 8,6 km/h (2 Bft) O-NO 64 5 min 0,000 mm 1,2 UV-I 458 W/m 3,8 C 11,9 C 17,7 km/h (3 Bft)
16.03.2015 15:15 12,8 C 52 % 1022,6 hPa 0,0 l/m 10,2 km/h (2 Bft) N-NO 33 5 min 0,000 mm 1,1 UV-I 453 W/m 3,2 C 10,6 C 22,5 km/h (4 Bft)
16.03.2015 15:20 12,2 C 52 % 1022,7 hPa 0,0 l/m 10,4 km/h (2 Bft) O-NO 62 5 min 0,000 mm 1,1 UV-I 437 W/m 2,6 C 9,8 C 17,7 km/h (3 Bft)
16.03.2015 15:25 12,7 C 50 % 1022,7 hPa 0,0 l/m 11,7 km/h (2 Bft) O-NO 72 5 min 0,000 mm 1,0 UV-I 424 W/m 2,6 C 9,8 C 22,5 km/h (4 Bft)
16.03.2015 15:30 13,0 C 50 % 1022,6 hPa 0,0 l/m 9,4 km/h (2 Bft) O-NO 75 5 min 0,000 mm 1,0 UV-I 414 W/m 2,8 C 11,2 C 22,5 km/h (4 Bft)
16.03.2015 15:35 12,9 C 49 % 1022,7 hPa 0,0 l/m 10,1 km/h (2 Bft) O 98 5 min 0,000 mm 1,0 UV-I 411 W/m 2,5 C 10,7 C 19,3 km/h (3 Bft)
16.03.2015 15:40 13,2 C 50 % 1022,6 hPa 0,0 l/m 6,3 km/h (2 Bft) O-NO 61 5 min 0,000 mm 0,9 UV-I 397 W/m 3,0 C 13,2 C 16,1 km/h (3 Bft)
16.03.2015 15:45 12,9 C 51 % 1022,6 hPa 0,0 l/m 8,6 km/h (2 Bft) N-NO 21 5 min 0,000 mm 0,9 UV-I 369 W/m 3,0 C 11,5 C 16,1 km/h (3 Bft)
16.03.2015 15:50 12,6 C 52 % 1022,6 hPa 0,0 l/m 7,5 km/h (2 Bft) NO 56 5 min 0,000 mm 0,8 UV-I 336 W/m 3,0 C 11,9 C 12,9 km/h (3 Bft)
16.03.2015 15:55 12,6 C 52 % 1022,7 hPa 0,0 l/m 7,4 km/h (2 Bft) O-SO 105 0 min 0,000 mm 0,7 UV-I 183 W/m 3,0 C 12,0 C 19,3 km/h (3 Bft)
16.03.2015 16:00 12,5 C 52 % 1022,7 hPa 0,0 l/m 8,2 km/h (2 Bft) N-NO 31 0 min 0,000 mm 0,6 UV-I 156 W/m 2,9 C 11,4 C 17,7 km/h (3 Bft)
16.03.2015 16:05 12,2 C 52 % 1022,7 hPa 0,0 l/m 8,2 km/h (2 Bft) O-NO 61 0 min 0,229 mm 0,6 UV-I 143 W/m 2,6 C 11,0 C 16,1 km/h (3 Bft)
16.03.2015 16:10 12,1 C 53 % 1022,8 hPa 0,0 l/m 7,4 km/h (2 Bft) O-NO 59 0 min 0,000 mm 0,6 UV-I 165 W/m 2,8 C 11,4 C 17,7 km/h (3 Bft)
16.03.2015 16:15 12,1 C 54 % 1022,8 hPa 0,0 l/m 6,4 km/h (2 Bft) O-SO 114 0 min 0,000 mm 0,6 UV-I 159 W/m 3,1 C 12,1 C 17,7 km/h (3 Bft)
16.03.2015 16:20 12,1 C 54 % 1022,9 hPa 0,0 l/m 3,3 km/h (1 Bft) O-SO 109 0 min 0,000 mm 0,5 UV-I 153 W/m 3,1 C 12,1 C 11,3 km/h (2 Bft)
16.03.2015 16:25 12,1 C 54 % 1022,9 hPa 0,0 l/m 2,1 km/h (1 Bft) O 82 0 min 0,000 mm 0,5 UV-I 151 W/m 3,1 C 12,1 C 6,4 km/h (2 Bft)
16.03.2015 16:30 12,1 C 55 % 1022,9 hPa 0,0 l/m 1,9 km/h (1 Bft) NO 43 0 min 0,000 mm 0,5 UV-I 127 W/m 3,3 C 12,1 C 8,0 km/h (2 Bft)
16.03.2015 16:35 12,2 C 55 % 1022,9 hPa 0,0 l/m 1,9 km/h (1 Bft) NO 52 0 min 0,000 mm 0,2 UV-I 125 W/m 3,4 C 12,2 C 6,4 km/h (2 Bft)
16.03.2015 16:40 12,1 C 55 % 1022,9 hPa 0,0 l/m 2,1 km/h (1 Bft) O-SO 123 0 min 0,000 mm 0,0 UV-I 141 W/m 3,3 C 12,1 C 8,0 km/h (2 Bft)
16.03.2015 16:45 11,9 C 55 % 1022,9 hPa 0,0 l/m 3,6 km/h (1 Bft) O 97 0 min 0,000 mm 0,0 UV-I 135 W/m 3,2 C 11,9 C 9,7 km/h (2 Bft)
16.03.2015 16:50 12,0 C 56 % 1023,0 hPa 0,0 l/m 3,4 km/h (1 Bft) O-NO 58 5 min 0,000 mm 0,0 UV-I 149 W/m 3,5 C 12,0 C 11,3 km/h (2 Bft)
16.03.2015 16:55 12,1 C 56 % 1023,0 hPa 0,0 l/m 1,5 km/h (1 Bft) O-NO 76 5 min 0,000 mm 0,0 UV-I 158 W/m 3,6 C 12,1 C 9,7 km/h (2 Bft)
16.03.2015 17:00 12,2 C 55 % 1023,0 hPa 0,0 l/m 0,5 km/h (0 Bft) NO 54 5 min 0,000 mm 0,0 UV-I 129 W/m 3,4 C 12,2 C 6,4 km/h (2 Bft)
16.03.2015 17:05 12,2 C 55 % 1023,1 hPa 0,0 l/m 1,0 km/h (0 Bft) O-NO 61 0 min 0,101 mm 0,0 UV-I 120 W/m 3,4 C 12,2 C 4,8 km/h (1 Bft)
16.03.2015 17:10 12,1 C 55 % 1023,1 hPa 0,0 l/m 1,6 km/h (1 Bft) O-NO 57 5 min 0,000 mm 0,0 UV-I 123 W/m 3,3 C 12,1 C 6,4 km/h (2 Bft)
16.03.2015 17:15 12,1 C 56 % 1023,2 hPa 0,0 l/m 1,3 km/h (1 Bft) O 88 5 min 0,000 mm 0,0 UV-I 113 W/m 3,6 C 12,1 C 4,8 km/h (1 Bft)
16.03.2015 17:20 12,1 C 56 % 1023,2 hPa 0,0 l/m 0,3 km/h (0 Bft) O-NO 62 5 min 0,000 mm 0,0 UV-I 102 W/m 3,6 C 12,1 C 3,2 km/h (1 Bft)
16.03.2015 17:25 11,9 C 56 % 1023,1 hPa 0,0 l/m 1,3 km/h (1 Bft) O 84 5 min 0,000 mm 0,0 UV-I 98 W/m 3,4 C 11,9 C 4,8 km/h (1 Bft)
16.03.2015 17:30 11,8 C 57 % 1023,3 hPa 0,0 l/m 0,8 km/h (0 Bft) O-NO 63 0 min 0,000 mm 0,0 UV-I 81 W/m 3,6 C 11,8 C 4,8 km/h (1 Bft)
16.03.2015 17:35 11,7 C 57 % 1023,2 hPa 0,0 l/m 1,8 km/h (1 Bft) O-NO 74 0 min 0,000 mm 0,0 UV-I 71 W/m 3,5 C 11,7 C 4,8 km/h (1 Bft)
16.03.2015 17:40 11,6 C 57 % 1023,3 hPa 0,0 l/m 0,8 km/h (0 Bft) O-NO 58 0 min 0,000 mm 0,0 UV-I 50 W/m 3,4 C 11,6 C 4,8 km/h (1 Bft)
16.03.2015 17:45 11,6 C 58 % 1023,3 hPa 0,0 l/m 0,6 km/h (0 Bft) N-NO 27 0 min 0,000 mm 0,0 UV-I 42 W/m 3,6 C 11,6 C 4,8 km/h (1 Bft)
16.03.2015 17:50 11,4 C 58 % 1023,3 hPa 0,0 l/m 0,0 km/h (0 Bft) NO 55 0 min 0,000 mm 0,0 UV-I 33 W/m 3,4 C 11,4 C 1,6 km/h (1 Bft)
16.03.2015 17:55 11,4 C 58 % 1023,4 hPa 0,0 l/m 0,0 km/h (0 Bft) NO 55 0 min 0,000 mm 0,0 UV-I 26 W/m 3,4 C 11,4 C 0,0 km/h (0 Bft)
16.03.2015 18:00 11,3 C 59 % 1023,5 hPa 0,0 l/m 0,0 km/h (0 Bft) NO 55 0 min 0,000 mm 0,0 UV-I 22 W/m 3,6 C 11,3 C 0,0 km/h (0 Bft)
16.03.2015 18:05 11,2 C 60 % 1023,5 hPa 0,0 l/m 0,0 km/h (0 Bft) NO 55 0 min 0,051 mm 0,0 UV-I 20 W/m 3,7 C 11,2 C 0,0 km/h (0 Bft)
16.03.2015 18:10 11,1 C 61 % 1023,5 hPa 0,0 l/m 0,0 km/h (0 Bft) NO 55 0 min 0,000 mm 0,0 UV-I 16 W/m 3,9 C 11,1 C 0,0 km/h (0 Bft)
16.03.2015 18:15 10,9 C 60 % 1023,6 hPa 0,0 l/m 0,0 km/h (0 Bft) NO 55 0 min 0,000 mm 0,0 UV-I 12 W/m 3,4 C 10,9 C 0,0 km/h (0 Bft)
16.03.2015 18:20 10,6 C 62 % 1023,7 hPa 0,0 l/m 0,0 km/h (0 Bft) NO 55 5 min 0,000 mm 0,0 UV-I 11 W/m 3,6 C 10,6 C 0,0 km/h (0 Bft)
16.03.2015 18:25 10,3 C 62 % 1023,6 hPa 0,0 l/m 0,0 km/h (0 Bft) NO 55 0 min 0,000 mm 0,0 UV-I 9 W/m 3,3 C 10,3 C 0,0 km/h (0 Bft)
16.03.2015 18:30 10,1 C 63 % 1023,7 hPa 0,0 l/m 0,0 km/h (0 Bft) NO 55 0 min 0,000 mm 0,0 UV-I 7 W/m 3,4 C 10,1 C 1,6 km/h (1 Bft)
16.03.2015 18:35 9,8 C 63 % 1023,6 hPa 0,0 l/m 0,0 km/h (0 Bft) NO 55 0 min 0,000 mm 0,0 UV-I 5 W/m 3,1 C 9,8 C 0,0 km/h (0 Bft)
16.03.2015 18:40 9,6 C 64 % 1023,6 hPa 0,0 l/m 0,0 km/h (0 Bft) NO 55 0 min 0,000 mm 0,0 UV-I 5 W/m 3,1 C 9,6 C 0,0 km/h (0 Bft)
16.03.2015 18:45 9,2 C 66 % 1023,6 hPa 0,0 l/m 0,0 km/h (0 Bft) NO 55 0 min 0,000 mm 0,0 UV-I 0 W/m 3,2 C 9,2 C 0,0 km/h (0 Bft)
16.03.2015 18:50 8,9 C 67 % 1023,8 hPa 0,0 l/m 0,0 km/h (0 Bft) NO 55 0 min 0,000 mm 0,0 UV-I 0 W/m 3,1 C 8,9 C 0,0 km/h (0 Bft)
16.03.2015 18:55 8,8 C 68 % 1024,1 hPa 0,0 l/m 0,0 km/h (0 Bft) NO 55 0 min 0,000 mm 0,0 UV-I 0 W/m 3,2 C 8,8 C 0,0 km/h (0 Bft)
16.03.2015 19:00 8,6 C 69 % 1024,1 hPa 0,0 l/m 0,8 km/h (0 Bft) NO 51 0 min 0,000 mm 0,0 UV-I 0 W/m 3,2 C 8,6 C 4,8 km/h (1 Bft)
16.03.2015 19:05 8,4 C 70 % 1024,1 hPa 0,0 l/m 0,0 km/h (0 Bft) NO 51 0 min 0,000 mm 0,0 UV-I 0 W/m 3,3 C 8,4 C 1,6 km/h (1 Bft)
16.03.2015 19:10 8,3 C 70 % 1024,0 hPa 0,0 l/m 0,0 km/h (0 Bft) NO 51 0 min 0,000 mm 0,0 UV-I 0 W/m 3,2 C 8,3 C 0,0 km/h (0 Bft)
16.03.2015 19:15 8,1 C 71 % 1024,0 hPa 0,0 l/m 0,0 km/h (0 Bft) NO 51 0 min 0,000 mm 0,0 UV-I 0 W/m 3,2 C 8,1 C 0,0 km/h (0 Bft)
16.03.2015 19:20 7,9 C 70 % 1024,0 hPa 0,0 l/m 0,0 km/h (0 Bft) NO 51 0 min 0,000 mm 0,0 UV-I 0 W/m 2,8 C 7,9 C 0,0 km/h (0 Bft)
16.03.2015 19:25 7,8 C 70 % 1024,0 hPa 0,0 l/m 0,0 km/h (0 Bft) NO 51 0 min 0,000 mm 0,0 UV-I 0 W/m 2,7 C 7,8 C 0,0 km/h (0 Bft)
16.03.2015 19:30 7,6 C 71 % 1024,1 hPa 0,0 l/m 0,0 km/h (0 Bft) NO 51 0 min 0,000 mm 0,0 UV-I 0 W/m 2,7 C 7,6 C 0,0 km/h (0 Bft)
16.03.2015 19:35 7,4 C 71 % 1024,2 hPa 0,0 l/m 0,0 km/h (0 Bft) NO 51 0 min 0,000 mm 0,0 UV-I 0 W/m 2,5 C 7,4 C 0,0 km/h (0 Bft)
16.03.2015 19:40 7,2 C 72 % 1024,1 hPa 0,0 l/m 0,0 km/h (0 Bft) NO 51 0 min 0,000 mm 0,0 UV-I 0 W/m 2,5 C 7,2 C 0,0 km/h (0 Bft)
16.03.2015 19:45 7,0 C 73 % 1024,2 hPa 0,0 l/m 0,0 km/h (0 Bft) NO 51 0 min 0,000 mm 0,0 UV-I 0 W/m 2,5 C 7,0 C 0,0 km/h (0 Bft)
16.03.2015 19:50 6,9 C 74 % 1024,1 hPa 0,0 l/m 0,0 km/h (0 Bft) NO 51 0 min 0,000 mm 0,0 UV-I 0 W/m 2,6 C 6,9 C 0,0 km/h (0 Bft)
16.03.2015 19:55 6,8 C 74 % 1024,1 hPa 0,0 l/m 0,0 km/h (0 Bft) NO 51 0 min 0,000 mm 0,0 UV-I 0 W/m 2,5 C 6,8 C 0,0 km/h (0 Bft)
16.03.2015 20:00 6,6 C 75 % 1024,1 hPa 0,0 l/m 0,0 km/h (0 Bft) NO 51 0 min 0,000 mm 0,0 UV-I 0 W/m 2,5 C 6,6 C 0,0 km/h (0 Bft)
16.03.2015 20:05 6,5 C 76 % 1024,2 hPa 0,0 l/m 0,0 km/h (0 Bft) NO 51 0 min 0,026 mm 0,0 UV-I 0 W/m 2,6 C 6,5 C 0,0 km/h (0 Bft)
16.03.2015 20:10 6,4 C 76 % 1024,3 hPa 0,0 l/m 0,0 km/h (0 Bft) NO 51 0 min 0,000 mm 0,0 UV-I 0 W/m 2,5 C 6,4 C 0,0 km/h (0 Bft)
16.03.2015 20:15 6,3 C 76 % 1024,2 hPa 0,0 l/m 0,0 km/h (0 Bft) NO 51 0 min 0,000 mm 0,0 UV-I 0 W/m 2,4 C 6,3 C 0,0 km/h (0 Bft)
16.03.2015 20:20 6,2 C 77 % 1024,3 hPa 0,0 l/m 0,0 km/h (0 Bft) NO 51 0 min 0,000 mm 0,0 UV-I 0 W/m 2,5 C 6,2 C 0,0 km/h (0 Bft)
16.03.2015 20:25 6,1 C 77 % 1024,3 hPa 0,0 l/m 0,0 km/h (0 Bft) NO 51 0 min 0,000 mm 0,0 UV-I 0 W/m 2,4 C 6,1 C 0,0 km/h (0 Bft)
16.03.2015 20:30 5,9 C 77 % 1024,4 hPa 0,0 l/m 0,0 km/h (0 Bft) NO 51 0 min 0,000 mm 0,0 UV-I 0 W/m 2,2 C 5,9 C 0,0 km/h (0 Bft)
16.03.2015 20:35 5,7 C 78 % 1024,4 hPa 0,0 l/m 0,0 km/h (0 Bft) NO 51 0 min 0,000 mm 0,0 UV-I 0 W/m 2,2 C 5,7 C 0,0 km/h (0 Bft)
16.03.2015 20:40 5,7 C 79 % 1024,5 hPa 0,0 l/m 0,0 km/h (0 Bft) NO 51 0 min 0,000 mm 0,0 UV-I 0 W/m 2,3 C 5,7 C 0,0 km/h (0 Bft)
16.03.2015 20:45 5,5 C 79 % 1024,5 hPa 0,0 l/m 0,0 km/h (0 Bft) NO 51 0 min 0,000 mm 0,0 UV-I 0 W/m 2,2 C 5,5 C 0,0 km/h (0 Bft)
16.03.2015 20:50 5,4 C 79 % 1024,5 hPa 0,0 l/m 0,0 km/h (0 Bft) NO 51 0 min 0,000 mm 0,0 UV-I 0 W/m 2,1 C 5,4 C 0,0 km/h (0 Bft)
16.03.2015 20:55 5,3 C 80 % 1024,6 hPa 0,0 l/m 0,0 km/h (0 Bft) NO 51 0 min 0,000 mm 0,0 UV-I 0 W/m 2,1 C 5,3 C 0,0 km/h (0 Bft)
16.03.2015 21:00 5,3 C 81 % 1024,6 hPa 0,0 l/m 0,0 km/h (0 Bft) NO 51 0 min 0,000 mm 0,0 UV-I 0 W/m 2,3 C 5,3 C 0,0 km/h (0 Bft)
16.03.2015 21:05 5,2 C 81 % 1024,5 hPa 0,0 l/m 0,0 km/h (0 Bft) NO 51 0 min 0,025 mm 0,0 UV-I 0 W/m 2,2 C 5,2 C 0,0 km/h (0 Bft)
16.03.2015 21:10 5,1 C 81 % 1024,6 hPa 0,0 l/m 0,0 km/h (0 Bft) NO 51 0 min 0,000 mm 0,0 UV-I 0 W/m 2,1 C 5,1 C 0,0 km/h (0 Bft)
16.03.2015 21:15 4,9 C 81 % 1024,6 hPa 0,0 l/m 0,0 km/h (0 Bft) NO 51 0 min 0,000 mm 0,0 UV-I 0 W/m 1,9 C 4,9 C 0,0 km/h (0 Bft)
16.03.2015 21:20 4,8 C 81 % 1024,7 hPa 0,0 l/m 0,0 km/h (0 Bft) NO 51 0 min 0,000 mm 0,0 UV-I 0 W/m 1,8 C 4,8 C 0,0 km/h (0 Bft)
16.03.2015 21:25 4,8 C 82 % 1024,7 hPa 0,0 l/m 0,0 km/h (0 Bft) NO 51 0 min 0,000 mm 0,0 UV-I 0 W/m 2,0 C 4,8 C 0,0 km/h (0 Bft)
16.03.2015 21:30 4,7 C 82 % 1024,7 hPa 0,0 l/m 0,0 km/h (0 Bft) NO 51 0 min 0,000 mm 0,0 UV-I 0 W/m 1,9 C 4,7 C 0,0 km/h (0 Bft)
16.03.2015 21:35 4,6 C 82 % 1024,7 hPa 0,0 l/m 0,0 km/h (0 Bft) NO 51 0 min 0,000 mm 0,0 UV-I 0 W/m 1,8 C 4,6 C 0,0 km/h (0 Bft)
16.03.2015 21:40 4,4 C 82 % 1024,8 hPa 0,0 l/m 0,0 km/h (0 Bft) NO 51 0 min 0,000 mm 0,0 UV-I 0 W/m 1,6 C 4,4 C 0,0 km/h (0 Bft)
16.03.2015 21:45 4,3 C 82 % 1024,8 hPa 0,0 l/m 0,0 km/h (0 Bft) NO 51 0 min 0,000 mm 0,0 UV-I 0 W/m 1,5 C 4,3 C 0,0 km/h (0 Bft)
16.03.2015 21:50 4,2 C 82 % 1024,7 hPa 0,0 l/m 0,0 km/h (0 Bft) NO 51 0 min 0,000 mm 0,0 UV-I 0 W/m 1,4 C 4,2 C 0,0 km/h (0 Bft)
16.03.2015 21:55 4,1 C 82 % 1024,8 hPa 0,0 l/m 0,0 km/h (0 Bft) NO 51 0 min 0,000 mm 0,0 UV-I 0 W/m 1,3 C 4,1 C 0,0 km/h (0 Bft)
16.03.2015 22:00 3,9 C 83 % 1024,8 hPa 0,0 l/m 0,0 km/h (0 Bft) NO 51 0 min 0,000 mm 0,0 UV-I 0 W/m 1,3 C 3,9 C 0,0 km/h (0 Bft)
16.03.2015 22:05 3,8 C 83 % 1024,8 hPa 0,0 l/m 0,0 km/h (0 Bft) NO 51 0 min 0,000 mm 0,0 UV-I 0 W/m 1,2 C 3,8 C 0,0 km/h (0 Bft)
16.03.2015 22:10 3,6 C 84 % 1024,8 hPa 0,0 l/m 0,0 km/h (0 Bft) NO 51 0 min 0,000 mm 0,0 UV-I 0 W/m 1,2 C 3,6 C 0,0 km/h (0 Bft)
16.03.2015 22:15 3,4 C 84 % 1024,8 hPa 0,0 l/m 0,0 km/h (0 Bft) NO 51 0 min 0,000 mm 0,0 UV-I 0 W/m 1,0 C 3,4 C 0,0 km/h (0 Bft)
16.03.2015 22:20 3,3 C 85 % 1024,8 hPa 0,0 l/m 0,0 km/h (0 Bft) NO 51 0 min 0,000 mm 0,0 UV-I 0 W/m 1,0 C 3,3 C 0,0 km/h (0 Bft)
16.03.2015 22:25 3,2 C 86 % 1024,9 hPa 0,0 l/m 0,0 km/h (0 Bft) NO 51 0 min 0,000 mm 0,0 UV-I 0 W/m 1,1 C 3,2 C 0,0 km/h (0 Bft)
16.03.2015 22:30 3,1 C 86 % 1024,9 hPa 0,0 l/m 0,0 km/h (0 Bft) NO 51 0 min 0,000 mm 0,0 UV-I 0 W/m 1,0 C 3,1 C 0,0 km/h (0 Bft)
16.03.2015 22:35 3,0 C 86 % 1024,8 hPa 0,0 l/m 0,0 km/h (0 Bft) NO 51 0 min 0,000 mm 0,0 UV-I 0 W/m 0,9 C 3,0 C 0,0 km/h (0 Bft)
16.03.2015 22:40 2,9 C 86 % 1024,8 hPa 0,0 l/m 0,0 km/h (0 Bft) NO 51 0 min 0,000 mm 0,0 UV-I 0 W/m 0,8 C 2,9 C 0,0 km/h (0 Bft)
16.03.2015 22:45 2,9 C 87 % 1024,9 hPa 0,0 l/m 0,0 km/h (0 Bft) NO 51 0 min 0,000 mm 0,0 UV-I 0 W/m 1,0 C 2,9 C 0,0 km/h (0 Bft)
16.03.2015 22:50 2,8 C 87 % 1024,8 hPa 0,0 l/m 0,0 km/h (0 Bft) NO 51 0 min 0,000 mm 0,0 UV-I 0 W/m 0,9 C 2,8 C 0,0 km/h (0 Bft)
16.03.2015 22:55 2,8 C 87 % 1024,8 hPa 0,0 l/m 0,0 km/h (0 Bft) NO 51 0 min 0,000 mm 0,0 UV-I 0 W/m 0,9 C 2,8 C 0,0 km/h (0 Bft)
16.03.2015 23:00 2,8 C 87 % 1024,8 hPa 0,0 l/m 0,0 km/h (0 Bft) NO 51 0 min 0,000 mm 0,0 UV-I 0 W/m 0,9 C 2,8 C 0,0 km/h (0 Bft)
16.03.2015 23:05 2,8 C 87 % 1024,8 hPa 0,0 l/m 0,0 km/h (0 Bft) NO 51 0 min 0,000 mm 0,0 UV-I 0 W/m 0,9 C 2,8 C 0,0 km/h (0 Bft)
16.03.2015 23:10 2,8 C 87 % 1024,8 hPa 0,0 l/m 0,0 km/h (0 Bft) NO 51 0 min 0,000 mm 0,0 UV-I 0 W/m 0,9 C 2,8 C 0,0 km/h (0 Bft)
16.03.2015 23:15 2,7 C 87 % 1024,8 hPa 0,0 l/m 0,0 km/h (0 Bft) NO 51 0 min 0,000 mm 0,0 UV-I 0 W/m 0,8 C 2,7 C 0,0 km/h (0 Bft)
16.03.2015 23:20 2,6 C 88 % 1024,7 hPa 0,0 l/m 0,0 km/h (0 Bft) NO 51 0 min 0,000 mm 0,0 UV-I 0 W/m 0,8 C 2,6 C 0,0 km/h (0 Bft)
16.03.2015 23:25 2,6 C 88 % 1024,8 hPa 0,0 l/m 0,0 km/h (0 Bft) NO 51 0 min 0,000 mm 0,0 UV-I 0 W/m 0,8 C 2,6 C 0,0 km/h (0 Bft)
16.03.2015 23:30 2,5 C 88 % 1024,8 hPa 0,0 l/m 0,0 km/h (0 Bft) NO 51 0 min 0,000 mm 0,0 UV-I 0 W/m 0,7 C 2,5 C 0,0 km/h (0 Bft)
16.03.2015 23:35 2,4 C 88 % 1024,8 hPa 0,0 l/m 0,0 km/h (0 Bft) NO 51 0 min 0,000 mm 0,0 UV-I 0 W/m 0,6 C 2,4 C 0,0 km/h (0 Bft)
16.03.2015 23:40 2,3 C 88 % 1024,9 hPa 0,0 l/m 0,0 km/h (0 Bft) NO 51 0 min 0,000 mm 0,0 UV-I 0 W/m 0,5 C 2,3 C 0,0 km/h (0 Bft)
16.03.2015 23:45 2,3 C 88 % 1024,9 hPa 0,0 l/m 0,0 km/h (0 Bft) NO 51 0 min 0,000 mm 0,0 UV-I 0 W/m 0,5 C 2,3 C 0,0 km/h (0 Bft)
16.03.2015 23:50 2,3 C 88 % 1024,9 hPa 0,0 l/m 0,0 km/h (0 Bft) NO 51 0 min 0,000 mm 0,0 UV-I 0 W/m 0,5 C 2,3 C 0,0 km/h (0 Bft)
16.03.2015 23:55 2,2 C 88 % 1024,8 hPa 0,0 l/m 0,0 km/h (0 Bft) NO 51 0 min 0,000 mm 0,0 UV-I 0 W/m 0,4 C 2,2 C 0,0 km/h (0 Bft)
_ Min-Zeit 06:25 15:35 15:05 - 04:40 - - - - - - 06:25 06:25 06:20
Minimum _ 1,4 C 49 % 1022,5 hPa - 0,0 km/h (0 Bft) - - - - - - 0,2 C 1,4 C 0,0 km/h (0 Bft)
_ Max-Zeit 14:20 05:20 00:45 00:00 13:45 - - 07:50 14:05 12:45 13:30 12:55 15:40 13:45
Maximum _ 13,6 C 93 % 1024,9 hPa 0,0 l/m 14,7 km/h
O-SO (3 Bft)
- - 5 min 0,330 mm 2,0 UV-I 721 W/m 4,3 C 13,2 C 25,7 km/h
O-NO (4 Bft)
Durchschnitt _ 6,2 C 76 % 1024,0 hPa #0,0 l/m 3,3 km/h (1 Bft) O-NO - #7:30 h #2,032 mm 1,3 UV-I 307 W/m 2,1 C 5,8 C 8,2 km/h (2 Bft)